Weather reports worldwide

Advertisment
Aboyne, United Kingdom (3080): temperature & dewpoint: 17.04.2019 18:00:00 - 23.04.2019 18:00:00 (BST)Aboyne, United Kingdom (3080): temperature -20cm & temperature -100cm: 17.04.2019 18:00:00 - 23.04.2019 18:00:00 (BST)Aboyne, United Kingdom (3080): wind speed & gusts: 17.04.2019 18:00:00 - 23.04.2019 18:00:00 (BST)Aboyne, United Kingdom (3080): wind direction: 17.04.2019 18:00:00 - 23.04.2019 18:00:00 (BST)Aboyne, United Kingdom (3080): reduced air pressure: 17.04.2019 18:00:00 - 23.04.2019 18:00:00 (BST)Aboyne, United Kingdom (3080): visibility: 17.04.2019 18:00:00 - 23.04.2019 18:00:00 (BST)Aboyne, United Kingdom (3080): precipitation: 17.04.2019 18:00:00 - 23.04.2019 18:00:00 (BST)
Date & Time tt [°C] td [°C] tt -20cm [°C] tt -100cm [°C] ff [km/h] ff [kn] fx [km/h] fx [kn] dd ppp [hPa] vv [km] rr [mm]
23.04.2019 18:00:00 - - - - - - - - - - - -
23.04.2019 17:00:00 10,7 5,9 - - 24 13 - - E 1003,7 16 0,0
23.04.2019 16:00:00 12,3 5,9 - - 22 12 - - E 1003,7 21 0,0
23.04.2019 15:00:00 12,6 5,3 - - 29 16 - - E 1003,8 24 0,0
23.04.2019 14:00:00 13,7 5,2 - - 22 12 - - ESE 1004,3 23 0,0
23.04.2019 13:00:00 13,2 4,5 - - 16 9 - - SE 1004,7 22 0,0
23.04.2019 12:00:00 14,2 6,2 - - 22 12 - - ESE 1004,7 26 0,0
23.04.2019 11:00:00 13,5 7,8 - - 21 11 - - E 1004,9 18 0,0
23.04.2019 10:00:00 10,4 7,6 9,0 7,4 13 7 - - E 1005,4 10 0,0
23.04.2019 09:00:00 7,2 6,5 - - 5 3 - - E 1005,7 6 0,0
23.04.2019 08:00:00 6,4 6,2 - - 4 2 - - SE 1005,9 2,2 0,0
23.04.2019 07:00:00 5,8 5,6 - - 2 1 - - S 1005,9 0,4 0,0
23.04.2019 06:00:00 5,6 5,3 - - 0 0 - - N 1005,7 1,8 0,0
23.04.2019 05:00:00 5,7 5,4 - - 2 1 - - S 1006,0 0,6 0,0
23.04.2019 04:00:00 4,9 4,6 - - 0 0 - - N 1006,3 8 0,0
23.04.2019 03:00:00 4,2 4,0 - - 2 1 - - W 1006,7 8 0,0
23.04.2019 02:00:00 2,1 1,5 - - 0 0 - - N 1007,0 2,4 0,0
23.04.2019 01:00:00 3,0 2,3 - - 5 3 - - NW 1007,0 7 0,0
23.04.2019 00:00:00 5,1 3,4 - - 8 4 - - E 1007,1 10 0,0
22.04.2019 23:00:00 7,2 4,8 - - 11 6 - - E 1006,8 17 0,0
22.04.2019 22:00:00 7,8 3,6 - - 8 4 - - E 1007,0 21 0,0
22.04.2019 21:00:00 10,3 3,0 - - 9 5 - - NNE 1006,9 19 0,0
22.04.2019 20:00:00 13,4 2,6 - - 9 5 - - E 1006,4 22 0,0
22.04.2019 19:00:00 15,0 0,0 - - 15 8 - - SE 1006,0 35 0,0
22.04.2019 18:00:00 16,0 -5,6 - - 16 9 48 26 SE 1006,2 24 0,0
22.04.2019 17:00:00 17,0 -2,1 - - 18 10 - - SE 1006,5 28 0,0
22.04.2019 16:00:00 17,8 3,3 - - 24 13 - - SE 1006,9 12 0,0
22.04.2019 15:00:00 18,2 4,7 - - 24 13 50 27 SSE 1007,3 21 0,0
22.04.2019 14:00:00 19,2 5,6 - - 22 12 46 25 SSE 1007,1 17 0,0
22.04.2019 13:00:00 19,8 2,3 - - 24 13 46 25 SSE 1007,2 29 0,0
22.04.2019 12:00:00 19,8 3,9 - - 22 12 - - SSE 1007,4 25 0,0
22.04.2019 11:00:00 18,5 5,9 - - 22 12 - - SE 1007,9 21 0,0
22.04.2019 10:00:00 18,2 5,3 8,9 7,2 11 6 - - SSE 1008,0 17 0,0
22.04.2019 09:00:00 15,5 5,7 - - 4 2 - - E 1008,4 18 0,0
22.04.2019 08:00:00 12,6 5,6 - - 9 5 - - SE 1008,7 18 0,0
22.04.2019 07:00:00 10,7 4,1 - - 9 5 - - SW 1008,9 19 0,0
22.04.2019 06:00:00 10,1 3,7 - - 15 8 - - SSW 1008,8 17 0,0
22.04.2019 05:00:00 10,2 3,6 - - 18 10 - - S 1008,7 18 0,0
22.04.2019 04:00:00 11,3 4,0 - - 11 6 - - SW 1009,1 24 0,0
22.04.2019 03:00:00 11,5 3,8 - - 8 4 - - W 1009,3 22 0,0
22.04.2019 02:00:00 11,6 4,0 - - 4 2 - - SE 1009,5 30 0,0
22.04.2019 01:00:00 10,9 3,3 - - 5 3 - - ENE 1009,9 27 0,0
22.04.2019 00:00:00 12,3 3,4 - - 5 3 - - NNE 1010,0 35 0,0
21.04.2019 23:00:00 14,1 3,7 - - 4 2 - - S 1009,8 30 0,0
21.04.2019 22:00:00 15,3 4,0 - - 9 5 - - SW 1010,1 45 0,0
21.04.2019 21:00:00 16,4 4,5 - - 4 2 - - SSE 1010,0 45 0,0
21.04.2019 20:00:00 18,5 5,5 - - 9 5 - - SE 1010,0 27 0,0
21.04.2019 19:00:00 19,7 7,5 - - 11 6 - - S 1010,3 35 0,0
21.04.2019 18:00:00 20,6 8,4 - - 16 9 - - S 1010,8 35 0,0
21.04.2019 17:00:00 21,6 8,4 - - 15 8 - - S 1011,5 27 0,0
21.04.2019 16:00:00 21,6 8,0 - - 13 7 - - S 1012,4 25 0,0
21.04.2019 15:00:00 21,8 7,8 - - 16 9 - - SW 1013,0 35 0,0
21.04.2019 14:00:00 20,8 8,4 - - 15 8 - - S 1013,9 35 0,0
21.04.2019 13:00:00 21,3 9,4 - - 21 11 - - WSW 1014,6 22 0,0
21.04.2019 12:00:00 19,1 9,2 - - 21 11 - - WSW 1015,4 21 0,0
21.04.2019 11:00:00 18,8 9,3 - - 13 7 - - SW 1016,2 35 0,0
21.04.2019 10:00:00 18,5 9,5 8,5 6,9 8 4 - - W 1016,9 28 0,0
21.04.2019 09:00:00 15,0 11,0 - - 8 4 - - ESE 1017,7 23 0,0
21.04.2019 08:00:00 11,5 9,6 - - 8 4 - - E 1018,7 15 0,0
21.04.2019 07:00:00 8,8 8,2 - - 5 3 - - E 1019,3 9 0,0
21.04.2019 06:00:00 8,5 7,7 - - 8 4 - - E 1019,8 9 0,0
21.04.2019 05:00:00 8,0 7,3 - - 5 3 - - E 1020,7 10 0,0
21.04.2019 04:00:00 9,4 8,6 - - 5 3 - - NE 1021,3 14 0,0
21.04.2019 03:00:00 8,5 7,1 - - 4 2 - - E 1022,3 11 0,0
21.04.2019 02:00:00 9,9 8,7 - - 8 4 - - W 1022,9 19 0,0
21.04.2019 01:00:00 10,0 7,9 - - 2 1 - - WSW 1023,9 15 0,0
21.04.2019 00:00:00 10,6 8,7 - - 2 1 - - E 1025,0 19 0,0
20.04.2019 23:00:00 11,2 8,7 - - 4 2 - - E 1025,7 28 0,0
20.04.2019 22:00:00 11,0 8,1 - - 4 2 - - SSE 1026,4 35 0,0
20.04.2019 21:00:00 13,7 9,3 - - 5 3 - - E 1026,7 35 0,0
20.04.2019 20:00:00 16,4 10,0 - - 4 2 - - ENE 1026,8 45 0,0
20.04.2019 19:00:00 18,5 10,2 - - 4 2 - - NNE 1026,7 45 0,0
20.04.2019 18:00:00 18,9 9,7 - - 13 7 - - NNE 1026,8 45 0,0
20.04.2019 17:00:00 20,6 10,2 - - 15 8 - - N 1026,7 29 0,0
20.04.2019 16:00:00 23,1 9,4 - - 5 3 - - W 1025,9 50 0,0
20.04.2019 15:00:00 21,9 9,7 - - 13 7 - - E 1026,5 40 0,0
20.04.2019 14:00:00 22,6 9,1 - - 11 6 - - ESE 1027,2 40 0,0
20.04.2019 13:00:00 21,6 9,5 - - 9 5 - - ESE 1027,8 50 0,0
20.04.2019 12:00:00 19,4 9,1 - - 8 4 - - E 1028,7 30 0,0
20.04.2019 11:00:00 17,7 9,0 - - 9 5 - - E 1029,1 35 0,0
20.04.2019 10:00:00 16,6 8,5 7,9 6,7 4 2 - - E 1029,5 30 0,0
20.04.2019 09:00:00 12,0 6,9 - - 4 2 - - SSW 1029,9 30 0,0
20.04.2019 08:00:00 9,5 6,8 - - 4 2 - - W 1030,1 30 0,0
20.04.2019 07:00:00 7,4 5,3 - - 11 6 - - W 1029,7 28 0,0
20.04.2019 06:00:00 4,4 2,8 - - 2 1 - - SSE 1029,8 22 0,0
20.04.2019 05:00:00 6,1 4,8 - - 8 4 - - WSW 1030,0 24 0,0
20.04.2019 04:00:00 6,4 4,2 - - 5 3 - - W 1030,2 19 0,0
20.04.2019 03:00:00 7,6 4,5 - - 4 2 - - E 1029,9 30 0,0
20.04.2019 02:00:00 10,1 5,1 - - 5 3 - - E 1029,7 27 0,0
20.04.2019 01:00:00 10,5 5,6 - - 9 5 - - ESE 1029,9 27 0,0
20.04.2019 00:00:00 12,0 5,6 - - 13 7 - - E 1029,9 29 0,0
19.04.2019 23:00:00 13,4 5,3 - - 13 7 - - SSE 1029,9 30 0,0
19.04.2019 22:00:00 13,6 5,1 - - 9 5 - - S 1030,1 28 0,0
19.04.2019 21:00:00 13,5 5,1 - - 15 8 - - SW 1030,2 24 0,0
19.04.2019 20:00:00 14,2 4,9 - - 9 5 - - SSE 1030,0 28 0,0
19.04.2019 19:00:00 16,1 5,7 - - 13 7 - - S 1029,7 28 0,0
19.04.2019 18:00:00 16,9 6,3 - - 11 6 - - SE 1029,6 22 0,0
19.04.2019 17:00:00 18,6 6,0 - - 15 8 - - SE 1029,4 30 0,0
19.04.2019 16:00:00 19,0 5,3 - - 18 10 - - SSE 1029,7 25 0,0
19.04.2019 15:00:00 19,0 6,4 - - 22 12 46 25 SE 1030,1 19 0,0
19.04.2019 14:00:00 18,8 5,8 - - 26 14 - - SSE 1030,1 20 0,0
19.04.2019 13:00:00 18,4 4,9 - - 21 11 - - SSE 1030,2 24 0,0
19.04.2019 12:00:00 17,9 5,7 - - 21 11 - - S 1030,7 20 0,0
19.04.2019 11:00:00 16,4 6,3 - - 8 4 - - S 1031,1 17 0,0
19.04.2019 10:00:00 11,6 6,9 7,2 6,5 9 5 - - E 1031,6 16 0,0
19.04.2019 09:00:00 8,3 6,4 - - 8 4 - - E 1031,7 15 0,0
19.04.2019 08:00:00 4,5 4,5 - - 5 3 - - WNW 1031,9 8 0,0
19.04.2019 07:00:00 2,1 1,9 - - 5 3 - - WNW 1031,9 5 0,0
19.04.2019 06:00:00 1,5 1,3 - - 5 3 - - NW 1031,9 5 0,0
19.04.2019 05:00:00 1,8 1,2 - - 4 2 - - W 1032,0 5 0,0
19.04.2019 04:00:00 3,2 2,6 - - 8 4 - - NW 1031,8 8 0,0
19.04.2019 03:00:00 6,2 5,4 - - 13 7 - - E 1031,3 13 0,0
19.04.2019 02:00:00 3,8 2,8 - - 4 2 - - W 1031,8 9 0,0
19.04.2019 01:00:00 5,4 4,2 - - 8 4 - - E 1031,8 10 0,0
19.04.2019 00:00:00 6,2 4,5 - - 8 4 - - E 1031,8 11 0,0
18.04.2019 23:00:00 7,0 4,9 - - 11 6 - - E 1031,5 12 0,0
18.04.2019 22:00:00 7,5 4,3 - - 5 3 - - E 1031,3 15 0,0
18.04.2019 21:00:00 8,9 4,8 - - 13 7 - - E 1030,8 16 0,0
18.04.2019 20:00:00 11,0 4,0 - - 8 4 - - ENE 1030,1 20 0,0
18.04.2019 19:00:00 12,7 3,8 - - 9 5 - - ESE 1029,3 22 0,0
18.04.2019 18:00:00 15,2 3,6 - - 18 10 - - ESE 1028,7 27 0,0
18.04.2019 17:00:00 17,0 3,2 - - 26 14 46 25 SE 1028,6 21 0,0
18.04.2019 16:00:00 16,7 2,2 - - 26 14 - - SE 1028,8 30 0,0
18.04.2019 15:00:00 17,3 0,3 - - 26 14 52 28 SE 1028,9 27 0,0
18.04.2019 14:00:00 17,4 2,9 - - 22 12 - - ESE 1028,8 25 0,0
18.04.2019 13:00:00 14,7 4,5 - - 22 12 - - E 1029,2 25 0,0
18.04.2019 12:00:00 11,9 7,0 - - 15 8 - - E 1029,6 17 0,0
18.04.2019 11:00:00 8,0 6,1 - - 13 7 - - E 1030,2 9 0,0
18.04.2019 10:00:00 4,4 4,3 6,9 6,4 8 4 - - ESE 1030,9 1,8 0,0
18.04.2019 09:00:00 2,9 2,9 - - 2 1 - - WSW 1030,6 2,4 0,0
18.04.2019 08:00:00 1,9 1,8 - - 5 3 - - W 1030,3 0,4 0,0
18.04.2019 07:00:00 1,1 1,0 - - 4 2 - - W 1030,2 0,3 0,0
18.04.2019 06:00:00 0,3 0,2 - - 8 4 - - W 1029,8 0,2 0,0
18.04.2019 05:00:00 -0,6 -0,7 - - 4 2 - - WNW 1029,4 8 0,0
18.04.2019 04:00:00 -2,9 -3,4 - - 0 0 - - N 1029,2 9 0,0
18.04.2019 03:00:00 -2,1 -2,5 - - 5 3 - - W 1028,9 6 0,0
18.04.2019 02:00:00 -2,5 -3,0 - - 2 1 - - E 1028,7 8 0,0
18.04.2019 01:00:00 -1,9 -2,5 - - 4 2 - - WSW 1028,6 9 0,0
18.04.2019 00:00:00 -1,5 -2,4 - - 2 1 - - WNW 1028,5 10 0,0
17.04.2019 23:00:00 0,0 -1,4 - - 0 0 - - N 1028,1 12 0,0
17.04.2019 22:00:00 1,9 -0,6 - - 2 1 - - NE 1027,7 13 0,0
17.04.2019 21:00:00 6,0 1,8 - - 9 5 - - ESE 1026,9 19 0,0
17.04.2019 20:00:00 8,4 1,9 - - 5 3 - - SSE 1025,8 30 0,0
17.04.2019 19:00:00 9,8 2,3 - - 13 7 - - ESE 1025,1 22 0,0
17.04.2019 18:00:00 11,2 1,6 - - 16 9 - - SE 1024,6 29 0,0

tt = temperature
td = dewpoint
tt -20cm = temperature -20cm
tt -100cm = temperature -100cm
ff = wind speed
fx = gusts
dd = wind direction
ppp = reduced air pressure
vv = visibility
rr = precipitation

Next stations